Date String (YYYY-MM-DD hh:mm:ss) UTC,Instrument flags,absolute air pressure of the measurement (hPa),sample flow rate (lpm),inlet stack bypass flow (lpm),air temperature of the measurement (°C),ambient temperature measured by the external sensor (°C),aerosol sample conditioner tube jacket temperature (°C),OPC LED temperature (°C),internal box temperature (°C),relative humidity of the measurement (%),span deviation,mass concentration of particles derived from Lorenz-Mie calculation of OPC scattering (μg/m³),mass concentration of particles derived from Lorenz-Mie calculation of OPC scattering (μg/m³),mass concentration of particles derived from Lorenz-Mie calculation of OPC scattering (μg/m³)
DateTimeUTC,F1_M11,P_M11,Q1_M11,Q2_M11,T1_M11,T2_M11,T3_M11,T4_M11,T5_M11,U1_M11,ZSPAN_M11,X2_M11,X0_M11,X1_M11
2023-11-17 16:00:00,SystemResetWarning,0831.3,5.00,000.00,025.4,024.4,000.0,033.7,026.8,24.1,0000.8,0010.41,0015.48,0009.69
2023-11-17 16:01:00,SystemResetWarning,0831.2,5.00,000.00,025.4,024.4,000.0,033.7,026.9,24.0,0000.6,0010.41,0014.99,0009.71
2023-11-17 16:02:00,SystemResetWarning,0831.2,5.00,000.00,025.4,024.4,000.0,033.7,026.8,24.0,0000.4,0010.45,0014.27,0009.74
2023-11-17 16:03:00,SystemResetWarning,0831.1,5.00,000.00,025.4,024.5,000.0,033.7,026.9,24.0,0000.8,0010.45,0014.42,0009.75
2023-11-17 16:04:00,SystemResetWarning,0831.1,5.00,000.00,025.4,024.5,000.0,033.7,026.8,24.1,0001.0,0010.46,0014.80,0009.78
2023-11-17 16:05:00,SystemResetWarning,0831.2,5.00,000.00,025.4,024.5,000.0,033.7,026.8,24.1,0000.8,0010.48,0014.89,0009.83
2023-11-17 16:06:00,SystemResetWarning,0831.2,5.00,000.00,025.4,024.5,000.0,033.7,026.8,24.2,0000.7,0010.50,0015.55,0009.86
2023-11-17 16:07:00,SystemResetWarning,0831.2,5.00,000.00,025.4,024.5,000.0,033.7,026.8,24.2,0000.5,0010.51,0016.05,0009.90
2023-11-17 16:08:00,SystemResetWarning,0831.3,5.00,000.00,025.4,024.5,000.0,033.7,026.8,24.3,0000.3,0010.51,0014.99,0009.92
2023-11-17 16:09:00,SystemResetWarning,0831.2,5.00,000.00,025.4,024.5,000.0,033.7,026.8,24.3,0000.3,0010.57,0014.76,0009.96
2023-11-17 16:10:00,SystemResetWarning,0831.2,5.01,000.00,025.4,024.5,000.0,033.7,026.8,24.3,0000.1,0010.65,0015.11,0009.97
2023-11-17 16:11:00,SystemResetWarning,0831.2,5.00,000.00,025.4,024.5,000.0,033.7,026.9,24.2,0000.1,0010.72,0015.29,0009.98
2023-11-17 16:12:00,SystemResetWarning,0831.3,5.00,000.00,025.4,024.5,000.0,033.7,026.8,24.1,0000.4,0010.75,0015.27,0009.99
2023-11-17 16:13:00,SystemResetWarning,0831.3,5.00,000.00,025.4,024.5,000.0,033.7,026.9,24.0,0000.7,0010.75,0015.39,0009.99
2023-11-17 16:14:00,SystemResetWarning,0831.3,5.00,000.00,025.4,024.6,000.0,033.7,026.9,23.7,0000.6,0010.75,0015.60,0009.99
2023-11-17 16:15:00,SystemResetWarning,0831.3,5.00,000.00,025.5,024.6,000.0,033.7,026.9,23.5,0000.4,0010.76,0015.26,0009.99
2023-11-17 16:16:00,SystemResetWarning,0831.3,5.00,000.00,025.5,024.6,000.0,033.8,027.0,23.4,0000.2,0010.80,0015.40,0009.99
2023-11-17 16:17:00,SystemResetWarning,0831.3,5.00,000.00,025.5,024.6,000.0,033.8,027.0,23.2,-000.1,0010.83,0014.82,0010.00
2023-11-17 16:18:00,SystemResetWarning,0831.3,5.00,000.00,025.5,024.7,000.0,033.8,027.0,23.1,0000.1,0010.82,0014.91,0009.99
2023-11-17 16:19:00,SystemResetWarning,0831.3,5.00,000.00,025.5,024.7,000.0,033.8,027.0,23.0,0000.4,0010.82,0015.34,0009.98
2023-11-17 16:20:00,SystemResetWarning,0831.3,5.00,000.00,025.5,024.7,000.0,033.8,027.0,22.8,0000.3,0010.77,0015.62,0009.95
2023-11-17 16:21:00,SystemResetWarning,0831.3,4.99,000.00,025.6,024.7,000.0,033.8,027.0,22.7,0000.5,0010.72,0016.31,0009.94
2023-11-17 16:22:00,SystemResetWarning,0831.3,5.00,000.00,025.6,024.7,000.0,033.8,027.1,22.6,0000.8,0010.66,0017.07,0009.94
2023-11-17 16:23:00,SystemResetWarning,0831.3,5.00,000.00,025.6,024.7,000.0,033.8,027.1,22.6,0000.8,0010.60,0017.44,0009.92
2023-11-17 16:24:00,SystemResetWarning,0831.3,5.01,000.00,025.6,024.8,000.0,033.8,027.1,22.6,0000.7,0010.59,0017.58,0009.88
2023-11-17 16:25:00,SystemResetWarning,0831.3,5.01,000.00,025.6,024.8,000.0,033.8,027.1,22.6,0000.6,0010.56,0017.62,0009.86
2023-11-17 16:26:00,SystemResetWarning,0831.3,5.00,000.00,025.6,024.8,000.0,033.8,027.2,22.6,0000.7,0010.51,0017.50,0009.81
2023-11-17 16:27:00,SystemResetWarning,0831.3,4.99,000.00,025.6,024.8,000.0,033.9,027.2,22.6,0000.9,0010.41,0017.77,0009.75
2023-11-17 16:28:00,SystemResetWarning,0831.3,4.99,000.00,025.7,024.9,000.0,033.9,027.2,22.7,0001.2,0010.32,0018.32,0009.67
2023-11-17 16:29:00,SystemResetWarning,0831.3,4.99,000.00,025.7,024.9,000.0,033.9,027.2,22.7,0001.0,0010.28,0018.03,0009.62
2023-11-17 16:30:00,SystemResetWarning,0831.3,5.01,000.00,025.7,024.9,000.0,033.9,027.2,22.6,0000.8,0010.25,0017.44,0009.58
2023-11-17 16:31:00,SystemResetWarning,0831.3,5.01,000.00,025.7,024.9,000.0,033.9,027.2,22.4,0001.2,0010.21,0017.48,0009.55
2023-11-17 16:32:00,SystemResetWarning,0831.3,5.01,000.00,025.7,024.9,000.0,033.9,027.2,22.5,0001.0,0010.16,0016.57,0009.50
2023-11-17 16:33:00,SystemResetWarning,0831.3,5.00,000.00,025.7,024.9,000.0,033.9,027.2,22.5,0000.4,0010.13,0015.74,0009.46
2023-11-17 16:34:00,SystemResetWarning,0831.3,5.00,000.00,025.7,024.9,000.0,034.0,027.2,22.4,0000.1,0010.11,0015.32,0009.44
2023-11-17 16:35:00,SystemResetWarning,0831.3,4.99,000.00,025.7,024.9,000.0,034.0,027.3,22.4,0000.3,0010.06,0015.47,0009.43
2023-11-17 16:36:00,SystemResetWarning,0831.3,5.00,000.00,025.8,025.0,000.0,034.0,027.3,22.4,0000.4,0010.06,0015.17,0009.43
2023-11-17 16:37:00,SystemResetWarning,0831.2,5.00,000.00,025.8,025.0,000.0,034.0,027.3,22.4,0000.4,0010.04,0015.16,0009.42
2023-11-17 16:38:00,SystemResetWarning,0831.2,5.00,000.00,025.8,025.0,000.0,034.0,027.3,22.1,-000.1,0010.07,0014.87,0009.43
2023-11-17 16:39:00,SystemResetWarning,0831.3,5.00,000.00,025.8,025.0,000.0,034.0,027.3,22.1,-000.1,0010.08,0014.16,0009.45
2023-11-17 16:40:00,SystemResetWarning,0831.3,5.00,000.00,025.8,025.0,000.0,034.0,027.4,21.4,0000.2,0010.03,0013.86,0009.44
2023-11-17 16:41:00,SystemResetWarning,0831.3,4.99,000.00,025.8,025.1,000.0,034.0,027.4,21.6,0000.4,0010.00,0014.05,0009.43
2023-11-17 16:42:00,SystemResetWarning,0831.3,5.01,000.00,025.8,025.1,000.0,034.1,027.4,21.6,0000.1,0010.05,0013.98,0009.43
2023-11-17 16:43:00,SystemResetWarning,0831.3,5.01,000.00,025.9,025.1,000.0,034.1,027.4,21.5,-000.1,0010.06,0013.90,0009.42
2023-11-17 16:44:00,SystemResetWarning,0831.3,5.00,000.00,025.9,025.2,000.0,034.1,027.4,21.3,0000.1,0010.03,0013.80,0009.40
2023-11-17 16:45:00,SystemResetWarning,0831.3,5.00,000.00,025.9,025.2,000.0,034.1,027.5,21.3,0000.5,0010.00,0013.83,0009.35
2023-11-17 16:46:00,SystemResetWarning,0831.3,5.00,000.00,025.9,025.2,000.0,034.1,027.5,21.3,0000.5,0009.88,0013.86,0009.22
2023-11-17 16:47:00,SystemResetWarning,0831.3,5.00,000.00,025.9,025.3,000.0,034.1,027.5,21.8,0000.4,0009.77,0014.44,0009.10
2023-11-17 16:48:00,SystemResetWarning,0831.3,5.00,000.00,025.9,025.3,000.0,034.1,027.5,22.2,0000.0,0009.67,0014.33,0009.00
2023-11-17 16:49:00,SystemResetWarning,0831.3,5.01,000.00,026.0,025.3,000.0,034.2,027.5,22.5,0000.4,0009.57,0014.22,0008.91
2023-11-17 16:50:00,SystemResetWarning,0831.3,5.00,000.00,026.0,025.4,000.0,034.2,027.5,22.5,0000.5,0009.44,0014.21,0008.78
2023-11-17 16:51:00,SystemResetWarning,0831.3,5.00,000.00,026.0,025.4,000.0,034.2,027.6,22.4,0000.0,0009.30,0014.08,0008.67
2023-11-17 16:52:00,SystemResetWarning,0831.3,5.00,000.00,026.0,025.4,000.0,034.2,027.6,22.4,0000.0,0009.21,0014.35,0008.56
2023-11-17 16:53:00,SystemResetWarning,0831.3,5.00,000.00,026.1,025.5,000.0,034.2,027.6,22.2,0000.0,0009.09,0014.33,0008.48
2023-11-17 16:54:00,SystemResetWarning,0831.3,5.00,000.00,026.1,025.5,000.0,034.2,027.7,22.1,0000.0,0009.03,0014.74,0008.44
2023-11-17 16:55:00,SystemResetWarning,0831.3,4.99,000.00,026.1,025.5,000.0,034.3,027.7,22.2,0000.0,0009.08,0015.41,0008.45
2023-11-17 16:56:00,SystemResetWarning,0831.3,5.01,000.00,026.1,025.5,000.0,034.3,027.7,22.1,0000.0,0009.10,0016.01,0008.49
2023-11-17 16:57:00,SystemResetWarning,0831.3,5.00,000.00,026.2,025.6,000.0,034.3,027.7,21.9,0000.0,0009.16,0015.54,0008.56
2023-11-17 16:58:00,SystemResetWarning,0831.3,5.00,000.00,026.2,025.6,000.0,034.3,027.8,21.9,0000.0,0009.29,0015.11,0008.66
2023-11-17 16:59:00,SystemResetWarning,0831.3,5.00,000.00,026.2,025.6,000.0,034.3,027.8,21.8,0000.0,0009.39,0015.73,0008.74
